Weather History for KIRK - June, 2014

Change the Weather History Date:

Saturday, June 7, 2014

  Actual Average Record
Temperature  
Mean Temperature 66 °F 69 °F  
Max Temperature 71 °F 79 °F 98 °F (1934)
Min Temperature 60 °F 59 °F 43 °F (1935)
Degree Days  
Heating Degree Days 0 1  
Month to date heating degree days 0 7  
Since 1 June heating degree days 0 7  
Since 1 July heating degree days 6428 5847  
Cooling Degree Days 1 5  
Month to date cooling degree days 45 30  
Year to date cooling degree days 167 92  
Since 1 June cooling degree days 45 30  
Growing Degree Days 16 (Base 50)    
Moisture  
Dew Point 64 °F    
Average Humidity 89    
Maximum Humidity 97    
Minimum Humidity 81    
Precipitation  
Precipitation 1.60 in 0.18 in 2.33 in (1990)
Month to date precipitation 4.93 1.27  
Year to date precipitation 14.03 15.42  
Sea Level Pressure  
Sea Level Pressure 29.86 in    
Wind  
Wind Speed 9 mph (NE)    
Max Wind Speed 23 mph    
Max Gust Speed 30 mph    
Visibility 4 miles    
Events Rain , Thunderstorm    
T = Trace of Precipitation, MM = Missing Value Source: NWS Daily Summary

Daily Weather History Graph

Daily Weather History Graph

Search for Another Location

Airport or City:

Trip Planner

Search our weather history database for the weather conditions in past years. The results will help you decide how hot, cold, wet, or windy it might be!

Date:

Astronomy

Jun. 07, 2014 Rise Set
Actual Time 5:41 AM CDT 8:37 PM CDT
Civil Twilight 5:08 AM CDT 9:09 PM CDT
Nautical Twilight 4:27 AM CDT 9:51 PM CDT
Astronomical Twilight 3:39 AM CDT 10:38 PM CDT
Moon 2:55 PM CDT (6/7) 2:03 AM CDT (6/7)
Length of Visible Light 16h 01m
Length of Day
14h 56m
Waxing Gibbous, 68% of the Moon is Illuminated
Jun 7
Waxing Gibbous
Jun 12
Full
Jun 19
Last Quarter
Jun 27
New
Jul 5
First Quarter

Hourly Weather History & Observations

Time (CDT) Temp. Dew Point Humidity Pressure Visibility Wind Dir Wind Speed Gust Speed Precip Events Conditions
12:55 AM 64.0 °F 61.0 °F 90% 29.95 in 7.0 mi SSE 4.6 mph - N/A   Clear
1:55 AM 66.0 °F 63.0 °F 90% 29.95 in 7.0 mi SSE 5.8 mph - N/A   Clear
2:55 AM 64.9 °F 62.1 °F 90% 29.96 in 7.0 mi Calm Calm - N/A   Clear
3:55 AM 64.9 °F 62.1 °F 90% 29.94 in 5.0 mi East 5.8 mph - N/A   Clear
4:55 AM 63.0 °F 61.0 °F 93% 29.94 in 3.0 mi SE 4.6 mph - N/A   Clear
5:55 AM 64.9 °F 62.1 °F 90% 29.91 in 2.5 mi East 5.8 mph - N/A   Clear
6:12 AM 64.9 °F 63.0 °F 93% 29.93 in 3.0 mi ESE 5.8 mph - N/A   Clear
6:23 AM 66.0 °F 63.0 °F 90% 29.91 in 2.5 mi East 5.8 mph - N/A   Clear
6:32 AM 66.0 °F 63.0 °F 90% 29.91 in 3.0 mi East 8.1 mph - N/A   Clear
6:55 AM 66.2 °F 62.6 °F 88% 29.89 in 3.0 mi East 8.1 mph - N/A   Clear
7:55 AM 66.2 °F 64.4 °F 94% 29.89 in 3.0 mi ESE 10.4 mph - N/A   Overcast
8:16 AM 68.0 °F 64.0 °F 87% 29.89 in 3.0 mi SE 11.5 mph - N/A Thunderstorm Overcast
8:35 AM 66.9 °F 64.9 °F 93% 29.88 in 1.0 mi ESE 9.2 mph - 0.13 in Rain , Thunderstorm Thunderstorms and Rain
8:46 AM 68.0 °F 64.4 °F 88% 29.87 in 2.5 mi SE 11.5 mph - N/A Rain , Thunderstorm Light Rain
8:50 AM 68.0 °F 64.4 °F 88% 29.87 in 2.5 mi ESE 12.7 mph - N/A Rain Light Rain
8:55 AM 68.0 °F 66.2 °F 94% 29.87 in 3.0 mi SE 13.8 mph - N/A Rain Light Rain
9:06 AM 68.0 °F 66.0 °F 93% 29.87 in 2.5 mi ESE 10.4 mph - 0.00 in   Overcast
9:55 AM 69.1 °F 66.9 °F 93% 29.85 in 2.0 mi ESE 9.2 mph - 0.01 in Rain Light Rain
10:14 AM 69.1 °F 68.0 °F 96% 29.86 in 2.0 mi ESE 9.2 mph - 0.01 in Rain Light Rain
10:21 AM 69.1 °F 68.0 °F 96% 29.86 in 2.0 mi ESE 6.9 mph - 0.01 in Rain Light Rain
10:55 AM 69.1 °F 68.0 °F 96% 29.84 in 2.5 mi ESE 6.9 mph - 0.02 in Rain Light Rain
11:11 AM 69.1 °F 69.1 °F 100% 29.84 in 2.0 mi East 6.9 mph - 0.01 in Rain Light Rain
11:31 AM 69.1 °F 68.0 °F 96% 29.82 in 1.8 mi East 5.8 mph - 0.03 in Rain Light Rain
11:55 AM 69.1 °F 68.0 °F 96% 29.82 in 1.0 mi ESE 9.2 mph - 0.06 in Rain , Thunderstorm Rain
12:13 PM 68.0 °F - N/A% 29.81 in 0.2 mi ENE 4.6 mph - N/A Rain Heavy Rain
12:20 PM 66.9 °F - N/A% 29.80 in 0.2 mi NNE 3.5 mph - 0.73 in Rain Heavy Rain
12:41 PM 66.9 °F - N/A% 29.80 in 1.0 mi North 4.6 mph - 1.15 in Rain Heavy Rain
12:50 PM 66.2 °F - N/A% 29.80 in 1.0 mi Calm Calm - 1.19 in Rain Rain
12:55 PM 66.9 °F - N/A% 29.79 in 1.5 mi Variable 4.6 mph - 1.21 in Rain Rain
1:04 PM 68.0 °F - N/A% 29.79 in 3.0 mi North 8.1 mph - 0.02 in Rain Light Rain
1:32 PM 68.0 °F - N/A% 29.78 in 4.0 mi North 9.2 mph - 0.05 in Rain Light Rain
1:41 PM 68.0 °F - N/A% 29.78 in 3.0 mi North 8.1 mph - 0.06 in Rain Light Rain
1:55 PM 68.0 °F - N/A% 29.77 in 2.5 mi North 11.5 mph - 0.08 in Rain Light Rain
2:07 PM 68.0 °F - N/A% 29.77 in 3.0 mi North 10.4 mph - 0.03 in Rain Light Rain
2:25 PM 68.0 °F - N/A% 29.77 in 5.0 mi North 9.2 mph - 0.05 in Rain Light Rain
2:55 PM 70.0 °F - N/A% 29.76 in 8.0 mi NNW 11.5 mph - 0.07 in Rain Light Rain
3:55 PM 66.9 °F - N/A% 29.76 in 10.0 mi NNW 13.8 mph 21.9 mph 0.00 in   Overcast
4:55 PM 64.0 °F 64.0 °F 100% 29.80 in 4.0 mi North 19.6 mph 26.5 mph 0.00 in Rain Light Rain
5:10 PM 64.9 °F 64.9 °F 100% 29.80 in 2.5 mi North 17.3 mph 29.9 mph 0.01 in Rain Light Rain
5:20 PM 66.0 °F 66.0 °F 100% 29.81 in 5.0 mi North 18.4 mph 28.8 mph 0.01 in Rain Light Rain
5:29 PM 66.9 °F 66.9 °F 100% 29.81 in 8.0 mi North 16.1 mph 24.2 mph 0.01 in   Overcast
5:55 PM 66.9 °F 64.9 °F 93% 29.82 in 8.0 mi North 17.3 mph 25.3 mph 0.01 in   Overcast
6:55 PM 66.0 °F 61.0 °F 84% 29.86 in 10.0 mi North 17.3 mph 24.2 mph N/A   Overcast
7:21 PM 66.9 °F 62.1 °F 84% 29.87 in 10.0 mi North 12.7 mph - N/A   Scattered Clouds
7:55 PM 66.0 °F 62.1 °F 87% 29.87 in 7.0 mi North 11.5 mph - N/A   Partly Cloudy
8:55 PM 64.0 °F 61.0 °F 90% 29.90 in 7.0 mi NNW 9.2 mph - N/A   Clear
9:55 PM 63.0 °F 60.1 °F 90% 29.93 in 7.0 mi NW 9.2 mph - N/A   Clear
10:55 PM 62.1 °F 59.0 °F 90% 29.94 in 9.0 mi NNW 9.2 mph - N/A   Clear
11:24 PM 61.0 °F 59.0 °F 93% 29.96 in 7.0 mi NW 5.8 mph - N/A   Partly Cloudy
11:55 PM 61.0 °F 59.0 °F 93% 29.96 in 7.0 mi NW 5.8 mph - N/A   Clear